Wappingers Falls, NY

9:35 PM EDT on September 25, 2016 (GMT -0400)
Dutchess County

Weather History for KPOU - July, 2013

Change the Weather History Date:

Wednesday, July 24, 2013

  Actual Average Record
Temperature  
Mean Temperature 70 °F 73 °F  
Max Temperature 79 °F 85 °F 96 °F (1999)
Min Temperature 61 °F 61 °F 48 °F (1985)
Degree Days  
Heating Degree Days 0 0  
Month to date heating degree days 0 0  
Since 1 June heating degree days 31 49  
Since 1 July heating degree days 0 0  
Cooling Degree Days 5 8  
Month to date cooling degree days 347 184  
Year to date cooling degree days 554 347  
Since 1 June cooling degree days 501 311  
Growing Degree Days 20 (Base 50)    
Moisture  
Dew Point 63 °F    
Average Humidity 77    
Maximum Humidity 100    
Minimum Humidity 54    
Precipitation  
Precipitation 0.01 in 0.16 in 1.30 in (1988)
Month to date precipitation 2.91 3.49  
Year to date precipitation 23.38 25.42  
Sea Level Pressure  
Sea Level Pressure 29.75 in    
Wind  
Wind Speed 5 mph (North)    
Max Wind Speed 17 mph    
Max Gust Speed 24 mph    
Visibility 10 miles    
Events      
T = Trace of Precipitation, MM = Missing Value Source: NWS Daily Summary

Daily Weather History Graph

Daily Weather History Graph

Search for Another Location

Airport or City:

Trip Planner

Search our weather history database for the weather conditions in past years. The results will help you decide how hot, cold, wet, or windy it might be!

Date:

Astronomy

Jul. 24, 2013 Rise Set
Actual Time 5:42 AM EDT 8:21 PM EDT
Civil Twilight 5:10 AM EDT 8:53 PM EDT
Nautical Twilight 4:30 AM EDT 9:33 PM EDT
Astronomical Twilight 3:44 AM EDT 10:18 PM EDT
Moon 9:22 PM EDT (7/24) 8:02 AM EDT (7/24)
Length of Visible Light 15h 42m
Length of Day
14h 38m
Waning Gibbous, 95% of the Moon is Illuminated
Jul 24
Waning Gibbous
Jul 29
Last Quarter
Aug 6
New
Aug 14
First Quarter
Aug 20
Full

Hourly Weather History & Observations

Time (EDT) Temp. Dew Point Humidity Pressure Visibility Wind Dir Wind Speed Gust Speed Precip Events Conditions
12:53 AM 71.1 °F 70.0 °F 96% 29.62 in 10.0 mi Calm Calm - N/A   Mostly Cloudy
1:53 AM 70.0 °F 68.0 °F 93% 29.61 in 9.0 mi Calm Calm - N/A   Clear
2:53 AM 69.1 °F 68.0 °F 96% 29.60 in 10.0 mi Calm Calm - N/A   Clear
3:53 AM 69.1 °F 68.0 °F 96% 29.61 in 10.0 mi Calm Calm - N/A   Partly Cloudy
4:53 AM 70.0 °F 68.0 °F 93% 29.60 in 10.0 mi Calm Calm - N/A   Mostly Cloudy
5:53 AM 70.0 °F 68.0 °F 93% 29.62 in 10.0 mi Calm Calm - N/A   Overcast
6:53 AM 70.0 °F 69.1 °F 97% 29.65 in 9.0 mi Calm Calm - N/A   Scattered Clouds
7:53 AM 71.1 °F 68.0 °F 90% 29.67 in 10.0 mi Calm Calm - N/A   Overcast
8:53 AM 73.0 °F 69.1 °F 87% 29.69 in 10.0 mi SW 3.5 mph - N/A   Overcast
9:53 AM 78.1 °F 68.0 °F 71% 29.71 in 10.0 mi NNW 3.5 mph - N/A   Clear
10:53 AM 75.9 °F 68.0 °F 76% 29.72 in 10.0 mi North 10.4 mph 16.1 mph N/A   Mostly Cloudy
11:53 AM 75.0 °F 64.0 °F 69% 29.75 in 10.0 mi North 5.8 mph - 0.01 in   Overcast
12:53 PM 75.9 °F 63.0 °F 64% 29.76 in 10.0 mi North 10.4 mph - N/A   Overcast
1:53 PM 77.0 °F 62.1 °F 60% 29.76 in 10.0 mi North 5.8 mph - N/A   Overcast
2:53 PM 77.0 °F 62.1 °F 60% 29.77 in 10.0 mi North 5.8 mph - N/A   Overcast
3:53 PM 78.1 °F 62.1 °F 58% 29.77 in 10.0 mi NE 6.9 mph - N/A   Overcast
4:53 PM 78.1 °F 62.1 °F 58% 29.78 in 10.0 mi Variable 5.8 mph - N/A   Scattered Clouds
5:53 PM 78.1 °F 61.0 °F 56% 29.78 in 10.0 mi NNE 9.2 mph - N/A   Scattered Clouds
6:53 PM 73.9 °F 57.9 °F 57% 29.82 in 10.0 mi North 10.4 mph - N/A   Overcast
7:53 PM 70.0 °F 53.1 °F 55% 29.86 in 10.0 mi NNE 12.7 mph 24.2 mph N/A   Overcast
8:53 PM 66.0 °F 53.1 °F 63% 29.90 in 10.0 mi North 4.6 mph - N/A   Clear
9:53 PM 64.0 °F 52.0 °F 65% 29.94 in 10.0 mi NNE 6.9 mph - N/A   Mostly Cloudy
10:53 PM 62.1 °F 51.1 °F 67% 29.96 in 10.0 mi NNE 6.9 mph - N/A   Partly Cloudy
11:53 PM 61.0 °F 50.0 °F 67% 29.97 in 10.0 mi North 6.9 mph - N/A   Clear